• In Hungary
  • List of Countries
  • For 7 days
  • Water Temperature
  • Satellite Maps
  • Weather Map
  • News
  • Weather Widgets
  • user-avatar
    Login

    Hourly Weather Mezhgornyy

    Today, 23 October, Tuesday

    Time Temperature Precipitation Wind Pressure Humidity
    00:00 +4°C° 0 mm 1 mps 751 mmHg 60%
    01:00 +4°C° 0 mm 1 mps 751 mmHg 61%
    02:00 +4°C° 0 mm 1 mps 751 mmHg 62%
    03:00 +4°C° 0 mm 1 mps 750 mmHg 64%
    04:00 +3°C° 0 mm 1 mps 750 mmHg 65%
    05:00 +3°C° 0 mm 1 mps 750 mmHg 67%
    06:00 +3°C° 0 mm 1 mps 750 mmHg 68%
    07:00 +3°C° 0 mm 1 mps 750 mmHg 70%
    08:00 +4°C° 0 mm 2 mps 749 mmHg 64%
    09:00 +6°C° 0 mm 2 mps 749 mmHg 59%
    10:00 +7°C° 0 mm 2 mps 749 mmHg 53%
    11:00 +9°C° 0 mm 3 mps 749 mmHg 49%
    12:00 +10°C° 0 mm 3 mps 748 mmHg 44%
    13:00 +12°C° 0 mm 4 mps 748 mmHg 40%
    14:00 +12°C° 0 mm 3 mps 747 mmHg 41%
    15:00 +12°C° 0 mm 3 mps 747 mmHg 41%
    16:00 +12°C° 0 mm 3 mps 746 mmHg 42%
    17:00 +11°C° 0 mm 3 mps 746 mmHg 48%
    18:00 +10°C° 0 mm 3 mps 745 mmHg 54%
    19:00 +9°C° 0 mm 3 mps 745 mmHg 60%
    20:00 +10°C° 0 mm 4 mps 745 mmHg 61%
    21:00 +10°C° 0 mm 4 mps 744 mmHg 62%
    22:00 +9°C° 0 mm 5 mps 744 mmHg 63%
    23:00 +9°C° 0 mm 5 mps 744 mmHg 64%

    Tomorrow, 24 October, Wednesday

    Time Temperature Precipitation Wind Pressure Humidity
    00:00 +9°C° 0 mm 5 mps 743 mmHg 65%
    01:00 +9°C° 0 mm 5 mps 743 mmHg 66%
    02:00 +9°C° 0.1 mm 5 mps 743 mmHg 69%
    03:00 +9°C° 0.1 mm 6 mps 742 mmHg 73%
    04:00 +9°C° 0.1 mm 6 mps 742 mmHg 76%
    05:00 +8°C° 0.2 mm 6 mps 742 mmHg 78%
    06:00 +8°C° 0.2 mm 6 mps 742 mmHg 80%
    07:00 +8°C° 0.2 mm 6 mps 741 mmHg 82%
    08:00 +9°C° 0 mm 7 mps 741 mmHg 78%
    09:00 +9°C° 0 mm 7 mps 741 mmHg 74%
    10:00 +10°C° 0 mm 7 mps 741 mmHg 70%
    11:00 +11°C° 0 mm 7 mps 741 mmHg 67%
    12:00 +11°C° 0 mm 7 mps 740 mmHg 64%
    13:00 +12°C° 0 mm 7 mps 740 mmHg 62%
    14:00 +13°C° 0 mm 6 mps 740 mmHg 61%
    15:00 +13°C° 0 mm 5 mps 739 mmHg 61%
    16:00 +14°C° 0 mm 4 mps 739 mmHg 61%
    17:00 +13°C° 0 mm 4 mps 739 mmHg 63%
    18:00 +12°C° 0 mm 4 mps 739 mmHg 64%
    19:00 +12°C° 0 mm 4 mps 739 mmHg 66%
    20:00 +11°C° 0 mm 4 mps 739 mmHg 66%
    21:00 +11°C° 0 mm 4 mps 739 mmHg 67%
    22:00 +10°C° 0 mm 4 mps 740 mmHg 67%
    23:00 +10°C° 0 mm 4 mps 739 mmHg 69%

    Day after tomorrow, 25 October, Thursday

    Time Temperature Precipitation Wind Pressure Humidity
    00:00 +10°C° 0 mm 4 mps 739 mmHg 70%
    01:00 +8°C° 0 mm 4 mps 739 mmHg 72%
    02:00 +8°C° 0 mm 4 mps 739 mmHg 73%
    03:00 +8°C° 0 mm 4 mps 739 mmHg 73%
    04:00 +7°C° 0 mm 4 mps 739 mmHg 74%
    05:00 +8°C° 0 mm 4 mps 739 mmHg 74%
    06:00 +8°C° 0 mm 4 mps 739 mmHg 74%
    07:00 +8°C° 0 mm 5 mps 739 mmHg 74%
    08:00 +9°C° 0 mm 6 mps 738 mmHg 67%
    09:00 +11°C° 0 mm 7 mps 738 mmHg 61%
    10:00 +12°C° 0 mm 8 mps 738 mmHg 54%
    11:00 +15°C° 0 mm 8 mps 738 mmHg 49%
    12:00 +17°C° 0 mm 9 mps 737 mmHg 43%
    13:00 +18°C° 0 mm 9 mps 737 mmHg 38%
    14:00 +18°C° 0 mm 9 mps 736 mmHg 38%
    15:00 +18°C° 0 mm 8 mps 736 mmHg 38%
    16:00 +18°C° 0 mm 8 mps 735 mmHg 38%
    17:00 +18°C° 0 mm 8 mps 735 mmHg 38%
    18:00 +17°C° 0 mm 8 mps 735 mmHg 39%
    19:00 +16°C° 0 mm 9 mps 735 mmHg 40%
    20:00 +16°C° 0 mm 9 mps 734 mmHg 40%
    21:00 +16°C° 0 mm 9 mps 734 mmHg 40%
    22:00 +16°C° 0 mm 9 mps 734 mmHg 40%
    23:00 +16°C° 0 mm 9 mps 733 mmHg 40%

    26 October, Friday

    Time Temperature Precipitation Wind Pressure Humidity
    00:00 +16°C° 0 mm 9 mps 733 mmHg 40%
    01:00 +15°C° 0 mm 9 mps 733 mmHg 41%
    02:00 +16°C° 0 mm 9 mps 732 mmHg 41%
    03:00 +16°C° 0 mm 9 mps 732 mmHg 40%
    04:00 +16°C° 0 mm 9 mps 731 mmHg 40%
    05:00 +16°C° 0 mm 9 mps 731 mmHg 42%
    06:00 +16°C° 0 mm 9 mps 731 mmHg 44%
    07:00 +16°C° 0 mm 9 mps 731 mmHg 45%
    08:00 +15°C° 0 mm 8 mps 731 mmHg 48%
    09:00 +15°C° 0 mm 7 mps 732 mmHg 51%
    10:00 +15°C° 0 mm 7 mps 732 mmHg 54%
    11:00 +14°C° 0 mm 6 mps 733 mmHg 58%
    12:00 +13°C° 0 mm 6 mps 734 mmHg 62%
    13:00 +11°C° 0 mm 6 mps 734 mmHg 65%
    14:00 +12°C° 0 mm 5 mps 735 mmHg 61%
    15:00 +10°C° 0 mm 5 mps 735 mmHg 56%
    16:00 +10°C° 0 mm 5 mps 736 mmHg 51%
    17:00 +11°C° 0 mm 4 mps 736 mmHg 53%
    18:00 +10°C° 0 mm 4 mps 737 mmHg 54%
    19:00 +9°C° 0 mm 3 mps 737 mmHg 55%
    20:00 +9°C° 0 mm 3 mps 737 mmHg 56%
    21:00 +9°C° 0 mm 3 mps 738 mmHg 56%
    22:00 +8°C° 0 mm 3 mps 738 mmHg 57%
    23:00 +8°C° 0 mm 3 mps 738 mmHg 58%

    27 October, Saturday

    Time Temperature Precipitation Wind Pressure Humidity
    00:00 +8°C° 0 mm 3 mps 739 mmHg 58%
    01:00 +8°C° 0 mm 3 mps 739 mmHg 59%
    02:00 +7°C° 0 mm 3 mps 739 mmHg 60%
    03:00 +7°C° 0 mm 3 mps 739 mmHg 61%
    04:00 +7°C° 0 mm 2 mps 740 mmHg 63%
    05:00 +5°C° 0 mm 3 mps 740 mmHg 64%
    06:00 +5°C° 0 mm 3 mps 740 mmHg 65%
    07:00 +5°C° 0 mm 3 mps 740 mmHg 66%
    08:00 +5°C° 0 mm 4 mps 741 mmHg 63%
    09:00 +6°C° 0 mm 4 mps 741 mmHg 61%
    10:00 +6°C° 0 mm 5 mps 741 mmHg 58%
    11:00 +7°C° 0 mm 6 mps 741 mmHg 55%
    12:00 +7°C° 0 mm 6 mps 742 mmHg 52%
    13:00 +6°C° 0 mm 7 mps 742 mmHg 48%
    14:00 +6°C° 0 mm 7 mps 742 mmHg 47%
    15:00 +6°C° 0 mm 7 mps 743 mmHg 46%
    16:00 +5°C° 0 mm 7 mps 743 mmHg 45%
    17:00 +4°C° 0 mm 6 mps 744 mmHg 48%
    18:00 +5°C° 0 mm 5 mps 744 mmHg 52%
    19:00 +4°C° 0 mm 4 mps 745 mmHg 55%
    20:00 +4°C° 0 mm 4 mps 745 mmHg 60%
    21:00 +3°C° 0 mm 4 mps 746 mmHg 64%
    22:00 +3°C° 0 mm 4 mps 746 mmHg 69%
    23:00 +3°C° 0 mm 4 mps 747 mmHg 72%

    28 October, Sunday

    Time Temperature Precipitation Wind Pressure Humidity
    00:00 +1°C° 0 mm 4 mps 747 mmHg 75%
    01:00 +1°C° 0 mm 4 mps 748 mmHg 78%
    02:00 0°C° 0 mm 4 mps 749 mmHg 80%
    03:00 0°C° 0 mm 4 mps 749 mmHg 81%
    04:00 0°C° 0 mm 4 mps 750 mmHg 83%
    05:00 -1°C° 0 mm 4 mps 751 mmHg 83%
    06:00 -1°C° 0 mm 4 mps 751 mmHg 84%
    07:00 0°C° 0 mm 3 mps 752 mmHg 85%
    08:00 0°C° 0 mm 4 mps 752 mmHg 77%
    09:00 +1°C° 0 mm 4 mps 753 mmHg 70%
    10:00 +2°C° 0 mm 5 mps 753 mmHg 62%
    11:00 +5°C° 0 mm 5 mps 753 mmHg 57%
    12:00 +5°C° 0 mm 6 mps 754 mmHg 52%
    13:00 +7°C° 0 mm 6 mps 754 mmHg 48%
    14:00 +7°C° 0 mm 6 mps 754 mmHg 50%
    15:00 +7°C° 0 mm 6 mps 754 mmHg 52%
    16:00 +8°C° 0 mm 6 mps 754 mmHg 54%
    17:00 +7°C° 0 mm 6 mps 754 mmHg 56%
    18:00 +7°C° 0 mm 6 mps 754 mmHg 57%
    19:00 +5°C° 0 mm 6 mps 754 mmHg 59%
    20:00 +5°C° 0 mm 6 mps 754 mmHg 58%
    21:00 +5°C° 0 mm 7 mps 754 mmHg 57%
    22:00 +5°C° 0 mm 7 mps 755 mmHg 55%
    23:00 +5°C° 0 mm 7 mps 755 mmHg 54%

    29 October, Monday

    Time Temperature Precipitation Wind Pressure Humidity
    00:00 +5°C° 0 mm 7 mps 755 mmHg 53%
    01:00 +5°C° 0 mm 7 mps 755 mmHg 52%
    02:00 +5°C° 0 mm 7 mps 755 mmHg 53%
    03:00 +5°C° 0 mm 7 mps 755 mmHg 54%
    04:00 +5°C° 0 mm 7 mps 756 mmHg 55%
    05:00 +5°C° 0 mm 7 mps 756 mmHg 59%
    06:00 +5°C° 0 mm 7 mps 756 mmHg 63%
    07:00 +4°C° 0 mm 7 mps 756 mmHg 68%
    08:00 +5°C° 0 mm 7 mps 756 mmHg 66%
    09:00 +6°C° 0 mm 8 mps 756 mmHg 65%
    10:00 +7°C° 0 mm 8 mps 756 mmHg 63%
    11:00 +10°C° 0 mm 8 mps 756 mmHg 59%
    12:00 +11°C° 0 mm 9 mps 756 mmHg 54%
    13:00 +12°C° 0 mm 9 mps 756 mmHg 50%
    14:00 +12°C° 0 mm 8 mps 756 mmHg 48%
    15:00 +12°C° 0 mm 8 mps 756 mmHg 46%
    16:00 +12°C° 0 mm 7 mps 756 mmHg 44%
    17:00 +11°C° 0 mm 7 mps 756 mmHg 46%
    18:00 +10°C° 0 mm 6 mps 756 mmHg 48%
    19:00 +10°C° 0 mm 6 mps 756 mmHg 51%
    20:00 +9°C° 0 mm 6 mps 756 mmHg 51%
    21:00 +9°C° 0 mm 6 mps 756 mmHg 51%
    22:00 +9°C° 0 mm 7 mps 756 mmHg 51%
    23:00 +9°C° 0 mm 7 mps 756 mmHg 52%
    Show more